铱星星座 160星 (IRIDIUM 160)

导读 | 豆包AI

IRIDIUM 160是美国铱星公司下一代通信卫星,属于铱星系统组网卫星,于2018年7月25日发射入轨,它是SpaceX为铱星星座升级发射的组网卫星之一。该卫星服务于全球移动语音与数据通信网络,补充替换老旧卫星,提升全球覆盖的通信能力,是铱星30亿美元升级组网项目的组成部分,为全球用户提供可靠的极地、远洋等偏远区域通信服务。

基本信息
目录编号:
43569
目录名称:
IRIDIUM 160
国际标识:
2018-061A
轨道中心:
EARTH
卫星名称:
铱星星座 160星
卫星全名:
铱星星座 160星 (IRIDIUM 160)
卫星状态:
在轨 (已飞行2790 天)
发射日期:
2018-07-25 UTC
国别 :
美国 (US)
星等 :
--
轨道信息
数据来源 国际轨道数据 AOE轨道数据
星历时间 2026-03-15T03:16:27+0800
14小时前
查看轨道信息
2026-03-15T02:00:00+0800
16小时前
查看轨道信息
半长轴 7155.805km 7155.833km
偏心率 0.0002321 0.000235
轨道倾角 86.391° 86.393°
近地点辐角 89.963° 94.367°
升交点赤经 96.276° 96.297°
平近点角 270.184° 351.825°
近地点 776.007km 776.014km
远地点 779.329km 779.378km
周期 100.403分钟 100.404分钟
每日圈数 14.342177 14.342091
详细信息
平衡模式:
三轴稳定
覆盖范围:
全球
运营商:
铱星通信公司
运营商所在国:
美国
制造商(研发单位):
阿莱尼亚宇航公司
制造商所在国:
意大利
使用方式:
暂无
卫星简介
铱星(Iridium)是由共66个运作中的通信卫星组成的卫星通信系统。这个系统原本规划77个通信卫星,所以用原子序数为77的铱元素来命名。铱卫星允许人们使用手持型电子设备进行全球性的语音及数据通讯。该卫星仍在工作。
2D轨道图
3D轨道图
轨道高度分析图
轨道倾角分析图
轨道综合分析图
查看轨道综合分析图